,,,PA_Meas_PMT16A,,PR_Meas_QMR101_102,,RH_Meas_QMH101,,SR_Meas_QMS101,,TA_Meas_QMH101,,GenWind,,GenWind,
date,time,status,PA,status,PR,status,RH,status,SR,status,TA,status,DirAvg,status,SpdAvg,
2014-11-29, 00:00:05,VALID,1008.93,VALID,0,INVALID,142.945,VALID,0,VALID,23.9084,VALID,118,VALID,0,
2014-11-29, 00:01:05,VALID,1008.92,VALID,0,INVALID,142.945,VALID,0,VALID,23.9084,VALID,118,VALID,0,
2014-11-29, 00:02:05,VALID,1008.91,VALID,0,INVALID,142.96,VALID,0,VALID,23.9297,VALID,118,VALID,0,
2014-11-29, 00:03:05,VALID,1008.91,VALID,0,INVALID,142.937,VALID,0,VALID,23.9297,VALID,118,VALID,0,
2014-11-29, 00:04:05,VALID,1008.88,VALID,0,INVALID,142.891,VALID,0,VALID,23.9084,VALID,118,VALID,0,
2014-11-29, 00:05:05,VALID,1008.87,VALID,0,INVALID,142.929,VALID,0,VALID,23.9084,VALID,118,VALID,0,
2014-11-29, 00:06:05,VALID,1008.83,VALID,0,INVALID,142.922,VALID,0,VALID,23.9084,VALID,118,VALID,0,
2014-11-29, 00:07:05,VALID,1008.83,VALID,0,INVALID,142.731,VALID,0,VALID,23.9102,VALID,118,VALID,0,
2014-11-29, 00:08:05,VALID,1008.81,VALID,0,INVALID,142.762,VALID,0,VALID,23.9084,VALID,118,VALID,0,
2014-11-29, 00:09:05,VALID,1008.81,VALID,0,INVALID,142.731,VALID,0,VALID,23.9084,VALID,118,VALID,0,
2014-11-29, 00:10:05,VALID,1008.78,VALID,0,INVALID,142.647,VALID,0,VALID,23.9084,VALID,118,VALID,0,
2014-11-29, 00:11:05,VALID,1008.8,VALID,0,INVALID,142.647,VALID,0,VALID,23.9084,VALID,118,VALID,0,
2014-11-29, 00:12:05,VALID,1008.8,VALID,0,INVALID,142.769,VALID,0,VALID,23.9278,VALID,118,VALID,0,
2014-11-29, 00:13:05,VALID,1008.8,VALID,0,INVALID,142.846,VALID,0,VALID,23.9278,VALID,118,VALID,0,
2014-11-29, 00:14:05,VALID,1008.82,VALID,0,INVALID,142.884,VALID,0,VALID,23.9278,VALID,118,VALID,0,
2014-11-29, 00:15:05,VALID,1008.81,VALID,0,INVALID,142.861,VALID,0,VALID,23.9278,VALID,118,VALID,0,
2014-11-29, 00:16:05,VALID,1008.8,VALID,0,INVALID,142.708,VALID,0,VALID,23.9278,VALID,118,VALID,0,
2014-11-29, 00:17:05,VALID,1008.77,VALID,0,INVALID,142.701,VALID,0,VALID,23.9473,VALID,118,VALID,0,
2014-11-29, 00:18:05,VALID,1008.77,VALID,0,INVALID,142.701,VALID,0,VALID,23.9473,VALID,118,VALID,0,
2014-11-29, 00:19:05,VALID,1008.77,VALID,0,INVALID,142.868,VALID,0,VALID,23.9863,VALID,118,VALID,0,
2014-11-29, 00:20:05,VALID,1008.75,VALID,0,INVALID,142.838,VALID,0,VALID,23.9668,VALID,118,VALID,0,
2014-11-29, 00:21:05,VALID,1008.74,VALID,0,INVALID,142.693,VALID,0,VALID,23.9668,VALID,118,VALID,0,
2014-11-29, 00:22:05,VALID,1008.74,VALID,0,INVALID,142.548,VALID,0,VALID,23.9473,VALID,118,VALID,0,
2014-11-29, 00:23:05,VALID,1008.74,VALID,0,INVALID,142.571,VALID,0,VALID,23.9473,VALID,118,VALID,0,
2014-11-29, 00:24:05,VALID,1008.75,VALID,0,INVALID,142.472,VALID,0,VALID,23.9473,VALID,118,VALID,0,
2014-11-29, 00:25:05,VALID,1008.74,VALID,0,INVALID,142.304,VALID,0,VALID,23.9473,VALID,118,VALID,0,
2014-11-29, 00:26:05,VALID,1008.79,VALID,0,INVALID,142.35,VALID,0,VALID,23.926,VALID,118,VALID,0,
2014-11-29, 00:27:05,VALID,1008.77,VALID,0,INVALID,142.541,VALID,0,VALID,23.9668,VALID,118,VALID,0,
2014-11-29, 00:28:05,VALID,1008.78,VALID,0,INVALID,142.617,VALID,0,VALID,23.9668,VALID,118,VALID,0,
2014-11-29, 00:29:05,VALID,1008.77,VALID,0,INVALID,142.67,VALID,0,VALID,23.9668,VALID,118,VALID,0,
2014-11-29, 00:30:05,VALID,1008.78,VALID,0,INVALID,142.907,VALID,0,VALID,23.9668,VALID,118,VALID,0,
2014-11-29, 00:31:05,VALID,1008.77,VALID,0,INVALID,142.838,VALID,0,VALID,23.9473,VALID,118,VALID,0,
2014-11-29, 00:32:05,VALID,1008.77,VALID,0,INVALID,142.67,VALID,0,VALID,23.9473,VALID,118,VALID,0,
2014-11-29, 00:33:05,VALID,1008.77,VALID,0,INVALID,142.754,VALID,0,VALID,23.9473,VALID,118,VALID,0,
2014-11-29, 00:34:05,VALID,1008.77,VALID,0,INVALID,142.762,VALID,0,VALID,23.9668,VALID,118,VALID,0,
2014-11-29, 00:35:05,VALID,1008.77,VALID,0,INVALID,142.884,VALID,0,VALID,23.9473,VALID,118,VALID,0,
2014-11-29, 00:36:05,VALID,1008.78,VALID,0,INVALID,142.8,VALID,0,VALID,23.9473,VALID,118,VALID,0,
2014-11-29, 00:37:05,VALID,1008.8,VALID,0,INVALID,142.716,VALID,0,VALID,23.9686,VALID,118,VALID,0,
2014-11-29, 00:38:05,VALID,1008.78,VALID,0,INVALID,142.731,VALID,0,VALID,23.9278,VALID,118,VALID,0,
2014-11-29, 00:39:05,VALID,1008.79,VALID,0,INVALID,142.83,VALID,0,VALID,23.9473,VALID,118,VALID,0,
2014-11-29, 00:40:05,VALID,1008.77,VALID,0,INVALID,142.922,VALID,0,VALID,23.9278,VALID,118,VALID,0,
2014-11-29, 00:41:05,VALID,1008.79,VALID,0,INVALID,142.914,VALID,0,VALID,23.9278,VALID,118,VALID,0,
2014-11-29, 00:42:05,VALID,1008.75,VALID,0,INVALID,142.937,VALID,0,VALID,23.9084,VALID,118,VALID,0,
2014-11-29, 00:43:05,VALID,1008.77,VALID,0,INVALID,142.968,VALID,0,VALID,23.9084,VALID,118,VALID,0,
2014-11-29, 00:44:05,VALID,1008.74,VALID,0,INVALID,143.044,VALID,0,VALID,23.9297,VALID,118,VALID,0,
2014-11-29, 00:45:05,VALID,1008.74,VALID,0,INVALID,143.052,VALID,0.112112,VALID,23.8871,VALID,118,VALID,0,
2014-11-29, 00:46:05,VALID,1008.72,VALID,0,INVALID,143.067,VALID,0,VALID,23.8871,VALID,118,VALID,0,
2014-11-29, 00:47:05,VALID,1008.75,VALID,0,INVALID,143.189,VALID,0,VALID,23.9084,VALID,118,VALID,0,
2014-11-29, 00:48:05,VALID,1008.72,VALID,0,INVALID,143.235,VALID,0.112112,VALID,23.8871,VALID,118,VALID,0,
2014-11-29, 00:49:05,VALID,1008.71,VALID,0,INVALID,143.235,VALID,0.112112,VALID,23.8871,VALID,118,VALID,0,
2014-11-29, 00:50:05,VALID,1008.68,VALID,0,INVALID,143.235,VALID,0.112112,VALID,23.8889,VALID,118,VALID,0,
2014-11-29, 00:51:05,VALID,1008.66,VALID,0,INVALID,143.265,VALID,0.112112,VALID,23.8676,VALID,118,VALID,0,
2014-11-29, 00:52:05,VALID,1008.65,VALID,0,INVALID,143.265,VALID,0.112112,VALID,23.8676,VALID,118,VALID,0,
2014-11-29, 00:53:05,VALID,1008.63,VALID,0,INVALID,143.235,VALID,0.112112,VALID,23.8481,VALID,118,VALID,0,
2014-11-29, 00:54:05,VALID,1008.61,VALID,0,INVALID,143.273,VALID,0.112112,VALID,23.8481,VALID,118,VALID,0,
2014-11-29, 00:55:05,VALID,1008.57,VALID,0,INVALID,143.273,VALID,0.112112,VALID,23.8481,VALID,118,VALID,0,
2014-11-29, 00:56:05,VALID,1008.59,VALID,0,INVALID,143.28,VALID,0.112112,VALID,23.8481,VALID,118,VALID,0,
2014-11-29, 00:57:05,VALID,1008.56,VALID,0,INVALID,143.219,VALID,0.112112,VALID,23.8499,VALID,118,VALID,0,
2014-11-29, 00:58:05,VALID,1008.55,VALID,0,INVALID,143.235,VALID,0.112112,VALID,23.8091,VALID,118,VALID,0,
2014-11-29, 00:59:05,VALID,1008.53,VALID,0,INVALID,143.204,VALID,0.112112,VALID,23.8091,VALID,118,VALID,0,
2014-11-29, 01:00:05,VALID,1008.53,VALID,0,INVALID,143.189,VALID,0,VALID,23.8109,VALID,118,VALID,0,
2014-11-29, 01:01:05,VALID,1008.51,VALID,0,INVALID,143.212,VALID,0,VALID,23.8127,VALID,118,VALID,0,
2014-11-29, 01:02:05,VALID,1008.5,VALID,0,INVALID,143.204,VALID,0,VALID,23.7914,VALID,118,VALID,0,
2014-11-29, 01:03:05,VALID,1008.49,VALID,0,INVALID,143.166,VALID,0,VALID,23.7914,VALID,118,VALID,0,
2014-11-29, 01:04:05,VALID,1008.47,VALID,0,INVALID,143.166,VALID,0,VALID,23.772,VALID,118,VALID,0,
2014-11-29, 01:05:05,VALID,1008.47,VALID,0,INVALID,143.143,VALID,0,VALID,23.772,VALID,118,VALID,0,
2014-11-29, 01:06:05,VALID,1008.45,VALID,0,INVALID,143.181,VALID,0,VALID,23.772,VALID,118,VALID,0,
2014-11-29, 01:07:05,VALID,1008.43,VALID,0,INVALID,143.158,VALID,0,VALID,23.772,VALID,118,VALID,0,
2014-11-29, 01:08:05,VALID,1008.44,VALID,0,INVALID,143.097,VALID,0,VALID,23.7932,VALID,118,VALID,0,
2014-11-29, 01:09:05,VALID,1008.44,VALID,0,INVALID,143.044,VALID,0,VALID,23.772,VALID,118,VALID,0,
2014-11-29, 01:10:05,VALID,1008.45,VALID,0,INVALID,143.044,VALID,0,VALID,23.772,VALID,118,VALID,0,
2014-11-29, 01:11:05,VALID,1008.45,VALID,0,INVALID,143.067,VALID,0,VALID,23.7525,VALID,118,VALID,0,
2014-11-29, 01:12:05,VALID,1008.44,VALID,0,INVALID,143.013,VALID,0,VALID,23.772,VALID,118,VALID,0,
2014-11-29, 01:13:05,VALID,1008.45,VALID,0,INVALID,142.96,VALID,0,VALID,23.772,VALID,118,VALID,0,
2014-11-29, 01:14:05,VALID,1008.48,VALID,0,INVALID,142.922,VALID,0,VALID,23.772,VALID,118,VALID,0,
2014-11-29, 01:15:05,VALID,1008.48,VALID,0,INVALID,142.899,VALID,0,VALID,23.772,VALID,118,VALID,0,
2014-11-29, 01:16:05,VALID,1008.49,VALID,0,INVALID,142.884,VALID,0,VALID,23.7525,VALID,118,VALID,0,
2014-11-29, 01:17:05,VALID,1008.5,VALID,0,INVALID,142.838,VALID,0,VALID,23.7525,VALID,118,VALID,0,
2014-11-29, 01:18:05,VALID,1008.5,VALID,0,INVALID,142.769,VALID,0,VALID,23.7932,VALID,118,VALID,0,
2014-11-29, 01:19:05,VALID,1008.52,VALID,0,INVALID,142.724,VALID,0,VALID,23.772,VALID,118,VALID,0,
2014-11-29, 01:20:05,VALID,1008.53,VALID,0,INVALID,142.716,VALID,0,VALID,23.772,VALID,118,VALID,0,
2014-11-29, 01:21:05,VALID,1008.53,VALID,0,INVALID,142.731,VALID,0,VALID,23.7914,VALID,118,VALID,0,
2014-11-29, 01:22:05,VALID,1008.51,VALID,0,INVALID,142.739,VALID,0,VALID,23.7914,VALID,118,VALID,0,
2014-11-29, 01:23:05,VALID,1008.5,VALID,0,INVALID,142.685,VALID,0,VALID,23.8127,VALID,118,VALID,0,
2014-11-29, 01:24:05,VALID,1008.48,VALID,0,INVALID,142.762,VALID,0,VALID,23.7932,VALID,118,VALID,0,
2014-11-29, 01:25:05,VALID,1008.5,VALID,0,INVALID,142.83,VALID,0,VALID,23.7932,VALID,118,VALID,0,
2014-11-29, 01:26:05,VALID,1008.48,VALID,0,INVALID,142.846,VALID,0,VALID,23.7738,VALID,118,VALID,0,
2014-11-29, 01:27:05,VALID,1008.43,VALID,0,INVALID,142.884,VALID,0,VALID,23.7525,VALID,118,VALID,0,
2014-11-29, 01:28:05,VALID,1008.42,VALID,0,INVALID,142.838,VALID,0,VALID,23.7738,VALID,118,VALID,0,
2014-11-29, 01:29:05,VALID,1008.41,VALID,0,INVALID,142.823,VALID,0,VALID,23.733,VALID,118,VALID,0,
2014-11-29, 01:30:05,VALID,1008.38,VALID,0,INVALID,142.777,VALID,0,VALID,23.7312,VALID,118,VALID,0,
2014-11-29, 01:31:05,VALID,1008.35,VALID,0,INVALID,142.731,VALID,0,VALID,23.7117,VALID,118,VALID,0,
2014-11-29, 01:32:05,VALID,1008.36,VALID,0,INVALID,142.647,VALID,0,VALID,23.733,VALID,118,VALID,0,
2014-11-29, 01:33:05,VALID,1008.35,VALID,0,INVALID,142.586,VALID,0.112112,VALID,23.7117,VALID,118,VALID,0,
2014-11-29, 01:34:05,VALID,1008.33,VALID,0,INVALID,142.457,VALID,0,VALID,23.7135,VALID,118,VALID,0,
2014-11-29, 01:35:05,VALID,1008.31,VALID,0,INVALID,142.396,VALID,0,VALID,23.694,VALID,118,VALID,0,
2014-11-29, 01:36:05,VALID,1008.31,VALID,0,INVALID,142.38,VALID,0,VALID,23.6532,VALID,118,VALID,0,
2014-11-29, 01:37:05,VALID,1008.28,VALID,0,INVALID,142.396,VALID,0.112112,VALID,23.6532,VALID,118,VALID,0,
2014-11-29, 01:38:05,VALID,1008.32,VALID,0,INVALID,142.319,VALID,0,VALID,23.655,VALID,118,VALID,0,
2014-11-29, 01:39:05,VALID,1008.26,VALID,0,INVALID,142.297,VALID,0,VALID,23.655,VALID,118,VALID,0,
2014-11-29, 01:40:05,VALID,1008.26,VALID,0,INVALID,142.228,VALID,0,VALID,23.655,VALID,118,VALID,0,
2014-11-29, 01:41:05,VALID,1008.28,VALID,0,INVALID,142.159,VALID,0.112112,VALID,23.6338,VALID,118,VALID,0,
2014-11-29, 01:42:05,VALID,1008.25,VALID,0,INVALID,142.136,VALID,0,VALID,23.655,VALID,118,VALID,0,
2014-11-29, 01:43:05,VALID,1008.26,VALID,0,INVALID,142.106,VALID,0.112112,VALID,23.6338,VALID,118,VALID,0,
2014-11-29, 01:44:05,VALID,1008.27,VALID,0,INVALID,142.053,VALID,0,VALID,23.6338,VALID,118,VALID,0,
2014-11-29, 01:45:05,VALID,1008.26,VALID,0,INVALID,141.984,VALID,0.112112,VALID,23.6143,VALID,118,VALID,0,
2014-11-29, 01:46:05,VALID,1008.27,VALID,0,INVALID,141.9,VALID,0,VALID,23.655,VALID,118,VALID,0,
2014-11-29, 01:47:05,VALID,1008.25,VALID,0,INVALID,141.923,VALID,0.112112,VALID,23.6125,VALID,118,VALID,0,
2014-11-29, 01:48:05,VALID,1008.25,VALID,0,INVALID,141.824,VALID,0,VALID,23.655,VALID,118,VALID,0,
2014-11-29, 01:49:05,VALID,1008.26,VALID,0,INVALID,141.755,VALID,0.112112,VALID,23.6338,VALID,118,VALID,0,
2014-11-29, 01:50:05,VALID,1008.24,VALID,0,INVALID,141.679,VALID,0.112112,VALID,23.6532,VALID,118,VALID,0,
2014-11-29, 01:51:05,VALID,1008.25,VALID,0,INVALID,141.648,VALID,0,VALID,23.6532,VALID,118,VALID,0,
2014-11-29, 01:52:05,VALID,1008.22,VALID,0,INVALID,141.61,VALID,0.112112,VALID,23.6727,VALID,118,VALID,0,
2014-11-29, 01:53:05,VALID,1008.21,VALID,0,INVALID,141.671,VALID,0.112112,VALID,23.694,VALID,118,VALID,0,
2014-11-29, 01:54:05,VALID,1008.21,VALID,0,INVALID,141.618,VALID,0.112112,VALID,23.6922,VALID,118,VALID,0,
2014-11-29, 01:55:05,VALID,1008.21,VALID,0,INVALID,141.656,VALID,0,VALID,23.6727,VALID,118,VALID,0,
2014-11-29, 01:56:05,VALID,1008.19,VALID,0,INVALID,141.702,VALID,0,VALID,23.694,VALID,112,VALID,0,
2014-11-29, 01:57:05,VALID,1008.19,VALID,0,INVALID,141.725,VALID,0.112112,VALID,23.6922,VALID,112,VALID,0,
2014-11-29, 01:58:05,VALID,1008.2,VALID,0,INVALID,141.717,VALID,0.112112,VALID,23.7117,VALID,112,VALID,0,
2014-11-29, 01:59:05,VALID,1008.17,VALID,0,INVALID,141.763,VALID,0.112112,VALID,23.6922,VALID,112,VALID,0,
2014-11-29, 02:00:05,VALID,1008.14,VALID,0,INVALID,141.816,VALID,0.112112,VALID,23.694,VALID,112,VALID,0,
2014-11-29, 02:01:05,VALID,1008.18,VALID,0,INVALID,141.847,VALID,0,VALID,23.694,VALID,112,VALID,0,
2014-11-29, 02:02:05,VALID,1008.18,VALID,0,INVALID,141.969,VALID,0,VALID,23.694,VALID,112,VALID,0,
2014-11-29, 02:03:05,VALID,1008.2,VALID,0,INVALID,142.022,VALID,0,VALID,23.694,VALID,112,VALID,0,
2014-11-29, 02:04:05,VALID,1008.2,VALID,0,INVALID,142.045,VALID,0,VALID,23.694,VALID,112,VALID,0,
2014-11-29, 02:05:05,VALID,1008.21,VALID,0,INVALID,142.068,VALID,0,VALID,23.6727,VALID,112,VALID,0,
2014-11-29, 02:06:05,VALID,1008.22,VALID,0,INVALID,142.159,VALID,0,VALID,23.7135,VALID,112,VALID,0,
2014-11-29, 02:07:05,VALID,1008.22,VALID,0,INVALID,142.205,VALID,0,VALID,23.694,VALID,112,VALID,0,
2014-11-29, 02:08:05,VALID,1008.25,VALID,0,INVALID,142.213,VALID,0,VALID,23.694,VALID,112,VALID,0,
2014-11-29, 02:09:05,VALID,1008.27,VALID,0,INVALID,142.258,VALID,0,VALID,23.6727,VALID,112,VALID,0,
2014-11-29, 02:10:05,VALID,1008.31,VALID,0,INVALID,142.304,VALID,0,VALID,23.7135,VALID,112,VALID,0,
2014-11-29, 02:11:05,VALID,1008.3,VALID,0,INVALID,142.304,VALID,0,VALID,23.7135,VALID,112,VALID,0,
2014-11-29, 02:12:05,VALID,1008.32,VALID,0,INVALID,142.319,VALID,0,VALID,23.7135,VALID,112,VALID,0,
2014-11-29, 02:13:05,VALID,1008.35,VALID,0,INVALID,142.38,VALID,0,VALID,23.694,VALID,112,VALID,0,
2014-11-29, 02:14:05,VALID,1008.35,VALID,0,INVALID,142.403,VALID,0,VALID,23.694,VALID,112,VALID,0,
2014-11-29, 02:15:05,VALID,1008.38,VALID,0,INVALID,142.434,VALID,0,VALID,23.694,VALID,112,VALID,0,
2014-11-29, 02:16:05,VALID,1008.4,VALID,0,INVALID,142.426,VALID,0,VALID,23.694,VALID,112,VALID,0,
2014-11-29, 02:17:05,VALID,1008.42,VALID,0,INVALID,142.487,VALID,0,VALID,23.694,VALID,112,VALID,0,
2014-11-29, 02:18:05,VALID,1008.37,VALID,0,INVALID,142.579,VALID,0,VALID,23.694,VALID,112,VALID,0,
2014-11-29, 02:19:05,VALID,1008.38,VALID,0,INVALID,142.541,VALID,0,VALID,23.6922,VALID,112,VALID,0,
2014-11-29, 02:20:05,VALID,1008.37,VALID,0,INVALID,142.502,VALID,0,VALID,23.733,VALID,112,VALID,0,
2014-11-29, 02:21:05,VALID,1008.37,VALID,0,INVALID,142.464,VALID,0,VALID,23.7135,VALID,112,VALID,0,
2014-11-29, 02:22:05,VALID,1008.34,VALID,0,INVALID,142.464,VALID,0,VALID,23.6922,VALID,112,VALID,0,
2014-11-29, 02:23:04,VALID,1008.35,VALID,0,INVALID,142.487,VALID,0,VALID,23.694,VALID,112,VALID,0,
2014-11-29, 02:24:04,VALID,1008.33,VALID,0,INVALID,142.502,VALID,0,VALID,23.6745,VALID,112,VALID,0,
2014-11-29, 02:25:04,VALID,1008.31,VALID,0,INVALID,142.525,VALID,0,VALID,23.6745,VALID,112,VALID,0,
2014-11-29, 02:26:04,VALID,1008.29,VALID,0,INVALID,142.495,VALID,0,VALID,23.6745,VALID,112,VALID,0,
2014-11-29, 02:27:04,VALID,1008.26,VALID,0,INVALID,142.426,VALID,0,VALID,23.6745,VALID,112,VALID,0,
2014-11-29, 02:28:04,VALID,1008.24,VALID,0,INVALID,142.396,VALID,0,VALID,23.6745,VALID,112,VALID,0,
2014-11-29, 02:29:04,VALID,1008.23,VALID,0,INVALID,142.297,VALID,0,VALID,23.655,VALID,112,VALID,0,
2014-11-29, 02:30:04,VALID,1008.22,VALID,0,INVALID,142.22,VALID,0,VALID,23.6745,VALID,112,VALID,0,
2014-11-29, 02:31:04,VALID,1008.25,VALID,0,INVALID,142.144,VALID,0,VALID,23.6745,VALID,112,VALID,0,
2014-11-29, 02:32:04,VALID,1008.22,VALID,0,INVALID,142.091,VALID,0,VALID,23.655,VALID,112,VALID,0,
2014-11-29, 02:33:04,VALID,1008.21,VALID,0,INVALID,142.053,VALID,0,VALID,23.655,VALID,112,VALID,0,
2014-11-29, 02:34:04,VALID,1008.18,VALID,0,INVALID,141.992,VALID,0,VALID,23.655,VALID,112,VALID,0,
2014-11-29, 02:35:04,VALID,1008.18,VALID,0,INVALID,141.999,VALID,0,VALID,23.655,VALID,112,VALID,0,
2014-11-29, 02:36:04,VALID,1008.18,VALID,0,INVALID,142.014,VALID,0,VALID,23.655,VALID,112,VALID,0,
2014-11-29, 02:37:04,VALID,1008.18,VALID,0,INVALID,141.984,VALID,0,VALID,23.655,VALID,112,VALID,0,
2014-11-29, 02:38:04,VALID,1008.17,VALID,0,INVALID,142.022,VALID,0,VALID,23.655,VALID,112,VALID,0,
2014-11-29, 02:39:04,VALID,1008.18,VALID,0,INVALID,142.022,VALID,0,VALID,23.6568,VALID,112,VALID,0,
2014-11-29, 02:40:04,VALID,1008.19,VALID,0,INVALID,142.037,VALID,0,VALID,23.6356,VALID,112,VALID,0,
2014-11-29, 02:41:04,VALID,1008.18,VALID,0,INVALID,142.075,VALID,0,VALID,23.6356,VALID,112,VALID,0,
2014-11-29, 02:42:04,VALID,1008.18,VALID,0,INVALID,142.091,VALID,0,VALID,23.655,VALID,112,VALID,0,
2014-11-29, 02:43:04,VALID,1008.2,VALID,0,INVALID,142.075,VALID,0,VALID,23.6143,VALID,112,VALID,0,
2014-11-29, 02:44:04,VALID,1008.21,VALID,0,INVALID,142.152,VALID,0,VALID,23.6568,VALID,112,VALID,0,
2014-11-29, 02:45:04,VALID,1008.22,VALID,0,INVALID,142.205,VALID,0,VALID,23.6373,VALID,112,VALID,0,
2014-11-29, 02:46:04,VALID,1008.22,VALID,0,INVALID,142.297,VALID,0,VALID,23.6356,VALID,112,VALID,0,
2014-11-29, 02:47:04,VALID,1008.25,VALID,0,INVALID,142.35,VALID,0,VALID,23.6568,VALID,112,VALID,0,
2014-11-29, 02:48:04,VALID,1008.25,VALID,0,INVALID,142.419,VALID,0,VALID,23.6161,VALID,112,VALID,0,
2014-11-29, 02:49:04,VALID,1008.26,VALID,0,INVALID,142.464,VALID,0,VALID,23.6356,VALID,112,VALID,0,
2014-11-29, 02:50:04,VALID,1008.25,VALID,0,INVALID,142.487,VALID,0,VALID,23.5966,VALID,112,VALID,0,
2014-11-29, 02:51:04,VALID,1008.26,VALID,0,INVALID,142.495,VALID,0,VALID,23.5966,VALID,112,VALID,0,
2014-11-29, 02:52:04,VALID,1008.29,VALID,0,INVALID,142.533,VALID,0,VALID,23.5966,VALID,112,VALID,0,
2014-11-29, 02:53:04,VALID,1008.28,VALID,0,INVALID,142.563,VALID,0,VALID,23.5966,VALID,112,VALID,0,
2014-11-29, 02:54:04,VALID,1008.28,VALID,0,INVALID,142.579,VALID,0,VALID,23.5771,VALID,112,VALID,0,
2014-11-29, 02:55:04,VALID,1008.31,VALID,0,INVALID,142.579,VALID,0,VALID,23.5771,VALID,112,VALID,0,
2014-11-29, 02:56:04,VALID,1008.32,VALID,0,INVALID,142.518,VALID,0,VALID,23.5771,VALID,112,VALID,0,
2014-11-29, 02:57:04,VALID,1008.35,VALID,0,INVALID,142.518,VALID,0,VALID,23.5771,VALID,112,VALID,0,
2014-11-29, 02:58:04,VALID,1008.36,VALID,0,INVALID,142.457,VALID,0,VALID,23.5771,VALID,112,VALID,0,
2014-11-29, 02:59:04,VALID,1008.38,VALID,0,INVALID,142.441,VALID,0,VALID,23.5771,VALID,112,VALID,0,
2014-11-29, 03:00:04,VALID,1008.39,VALID,0,INVALID,142.434,VALID,0,VALID,23.5576,VALID,112,VALID,0,
2014-11-29, 03:01:04,VALID,1008.38,VALID,0,INVALID,142.373,VALID,0,VALID,23.5771,VALID,112,VALID,0,
2014-11-29, 03:02:04,VALID,1008.4,VALID,0,INVALID,142.38,VALID,0,VALID,23.5576,VALID,112,VALID,0,
2014-11-29, 03:03:04,VALID,1008.38,VALID,0,INVALID,142.373,VALID,0,VALID,23.5576,VALID,112,VALID,0,
2014-11-29, 03:04:04,VALID,1008.36,VALID,0,INVALID,142.342,VALID,0,VALID,23.5576,VALID,112,VALID,0,
2014-11-29, 03:05:04,VALID,1008.37,VALID,0,INVALID,142.342,VALID,0,VALID,23.5576,VALID,112,VALID,0,
2014-11-29, 03:06:04,VALID,1008.36,VALID,0,INVALID,142.358,VALID,0,VALID,23.5576,VALID,112,VALID,0,
2014-11-29, 03:07:04,VALID,1008.39,VALID,0,INVALID,142.396,VALID,0,VALID,23.5381,VALID,112,VALID,0,
2014-11-29, 03:08:04,VALID,1008.37,VALID,0,INVALID,142.449,VALID,0,VALID,23.5381,VALID,112,VALID,0,
2014-11-29, 03:09:04,VALID,1008.37,VALID,0,INVALID,142.464,VALID,0,VALID,23.5381,VALID,112,VALID,0,
2014-11-29, 03:10:04,VALID,1008.39,VALID,0,INVALID,142.518,VALID,0,VALID,23.5381,VALID,112,VALID,0,
2014-11-29, 03:11:04,VALID,1008.38,VALID,0,INVALID,142.609,VALID,0,VALID,23.5594,VALID,112,VALID,0,
2014-11-29, 03:12:04,VALID,1008.39,VALID,0,INVALID,142.609,VALID,0,VALID,23.5381,VALID,112,VALID,0,
2014-11-29, 03:13:04,VALID,1008.37,VALID,0,INVALID,142.663,VALID,0,VALID,23.5576,VALID,112,VALID,0,
2014-11-29, 03:14:04,VALID,1008.38,VALID,0,INVALID,142.663,VALID,0,VALID,23.5576,VALID,112,VALID,0,
2014-11-29, 03:15:04,VALID,1008.37,VALID,0,INVALID,142.609,VALID,0,VALID,23.5576,VALID,112,VALID,0,
2014-11-29, 03:16:04,VALID,1008.34,VALID,0,INVALID,142.693,VALID,0,VALID,23.5789,VALID,112,VALID,0,
2014-11-29, 03:17:04,VALID,1008.34,VALID,0,INVALID,142.64,VALID,0,VALID,23.5789,VALID,112,VALID,0,
2014-11-29, 03:18:04,VALID,1008.36,VALID,0,INVALID,142.693,VALID,0,VALID,23.5789,VALID,112,VALID,0,
2014-11-29, 03:19:04,VALID,1008.37,VALID,0,INVALID,142.716,VALID,0,VALID,23.5576,VALID,112,VALID,0,
2014-11-29, 03:20:04,VALID,1008.36,VALID,0,INVALID,142.754,VALID,0,VALID,23.5576,VALID,112,VALID,0,
2014-11-29, 03:21:04,VALID,1008.35,VALID,0,INVALID,142.762,VALID,0,VALID,23.5594,VALID,112,VALID,0,
2014-11-29, 03:22:04,VALID,1008.38,VALID,0,INVALID,142.792,VALID,0,VALID,23.5381,VALID,112,VALID,0,
2014-11-29, 03:23:04,VALID,1008.37,VALID,0,INVALID,142.83,VALID,0,VALID,23.5381,VALID,112,VALID,0,
2014-11-29, 03:24:04,VALID,1008.43,VALID,0,INVALID,142.815,VALID,0,VALID,23.5594,VALID,112,VALID,0,
2014-11-29, 03:25:04,VALID,1008.42,VALID,0,INVALID,142.838,VALID,0,VALID,23.5594,VALID,112,VALID,0,
2014-11-29, 03:26:04,VALID,1008.45,VALID,0,INVALID,142.807,VALID,0,VALID,23.5381,VALID,112,VALID,0,
2014-11-29, 03:27:04,VALID,1008.44,VALID,0,INVALID,142.884,VALID,0,VALID,23.5594,VALID,112,VALID,0,
2014-11-29, 03:28:04,VALID,1008.48,VALID,0,INVALID,142.884,VALID,0,VALID,23.5594,VALID,112,VALID,0,
2014-11-29, 03:29:04,VALID,1008.48,VALID,0,INVALID,142.96,VALID,0,VALID,23.5789,VALID,112,VALID,0,
2014-11-29, 03:30:04,VALID,1008.5,VALID,0,INVALID,142.945,VALID,0,VALID,23.5576,VALID,112,VALID,0,
2014-11-29, 03:31:04,VALID,1008.48,VALID,0,INVALID,142.907,VALID,0,VALID,23.5594,VALID,112,VALID,0,
2014-11-29, 03:32:04,VALID,1008.5,VALID,0,INVALID,142.884,VALID,0,VALID,23.5381,VALID,112,VALID,0,
2014-11-29, 03:33:04,VALID,1008.53,VALID,0,INVALID,142.983,VALID,0,VALID,23.5381,VALID,112,VALID,0,
2014-11-29, 03:34:04,VALID,1008.53,VALID,0,INVALID,142.907,VALID,0,VALID,23.5399,VALID,112,VALID,0,
2014-11-29, 03:35:04,VALID,1008.54,VALID,0,INVALID,142.96,VALID,0,VALID,23.5381,VALID,112,VALID,0,
2014-11-29, 03:36:04,VALID,1008.56,VALID,0,INVALID,142.968,VALID,0,VALID,23.5381,VALID,112,VALID,0,
2014-11-29, 03:37:04,VALID,1008.6,VALID,0,INVALID,142.983,VALID,0,VALID,23.5594,VALID,112,VALID,0,
2014-11-29, 03:38:04,VALID,1008.62,VALID,0,INVALID,142.937,VALID,0,VALID,23.5186,VALID,112,VALID,0,
2014-11-29, 03:39:04,VALID,1008.66,VALID,0,INVALID,142.945,VALID,0,VALID,23.5186,VALID,112,VALID,0,
2014-11-29, 03:40:04,VALID,1008.65,VALID,0,INVALID,142.914,VALID,0,VALID,23.5186,VALID,112,VALID,0,
2014-11-29, 03:41:04,VALID,1008.67,VALID,0,INVALID,142.937,VALID,0,VALID,23.5186,VALID,112,VALID,0,
2014-11-29, 03:42:04,VALID,1008.69,VALID,0,INVALID,142.929,VALID,0,VALID,23.5186,VALID,112,VALID,0,
2014-11-29, 03:43:04,VALID,1008.71,VALID,0,INVALID,142.929,VALID,0,VALID,23.5381,VALID,112,VALID,0,
2014-11-29, 03:44:04,VALID,1008.72,VALID,0,INVALID,142.899,VALID,0,VALID,23.5186,VALID,112,VALID,0,
2014-11-29, 03:45:04,VALID,1008.72,VALID,0,INVALID,142.907,VALID,0,VALID,23.5186,VALID,115,VALID,0,
2014-11-29, 03:46:04,VALID,1008.77,VALID,0,INVALID,142.96,VALID,0,VALID,23.5399,VALID,115,VALID,0,
2014-11-29, 03:47:04,VALID,1008.78,VALID,0,INVALID,142.922,VALID,0,VALID,23.5381,VALID,115,VALID,0,
2014-11-29, 03:48:04,VALID,1008.81,VALID,0,INVALID,142.945,VALID,0,VALID,23.5381,VALID,115,VALID,0,
2014-11-29, 03:49:04,VALID,1008.85,VALID,0,INVALID,142.891,VALID,0,VALID,23.5381,VALID,136,VALID,0,
2014-11-29, 03:50:04,VALID,1008.9,VALID,0,INVALID,142.868,VALID,0,VALID,23.5576,VALID,140,VALID,0,
2014-11-29, 03:51:04,VALID,1009.01,VALID,0,INVALID,142.96,VALID,0,VALID,23.5771,VALID,144,VALID,0,
2014-11-29, 03:52:04,VALID,1009.17,VALID,0,INVALID,143.006,VALID,0,VALID,23.5966,VALID,155,VALID,0,
2014-11-29, 03:53:04,VALID,1009.27,VALID,0,INVALID,143.013,VALID,0,VALID,23.6161,VALID,179,VALID,0,